Regional Weather Roundup
Issued by NWS

Home | Current Version | Previous Version | Graphics & Text | Print | Product List | Glossary On
Versions: 1 2 3 4 5 6 7 8 9 10 11 12 13 14 15 16 17 18 19 20 21 22 23 24 25 26 27 28 29 30 31 32 33 34 35 36 37 38 39 40 41 42 43 44 45 46
000
ASUS45 KBOU 251410
RWRCO

WEATHER ROUNDUP FOR COLORADO
NATIONAL WEATHER SERVICE PUEBLO CO
800 AM MDT WED APR 25 2018

NOTE: "FAIR" INDICATES FEW OR NO CLOUDS BELOW 12000 FEET WITH NO
SIGNIFICANT WEATHER AND/OR OBSTRUCTIONS TO VISIBILITY.

COZ001>005-013-030-031-251500-
...NORTHWEST COLORADO...

CITY           SKY/WX    TMP DP  RH WIND       PRES   REMARKS
CRAIG          SUNNY     28  23  81 CALM      30.41R
HAYDEN         SUNNY     30  22  72 E8        30.41S WCI  22
MEEKER         SUNNY     27  20  75 SE3       30.41R
RABBIT EARS PA NOT AVBL
STEAMBOAT SPGS FAIR      26  21  83 CALM      30.40R
WALDEN         FAIR      23  18  80 S3        30.42S
$$

COZ006>008-011-251500-
...WEST CENTRAL VALLEYS...

CITY           SKY/WX    TMP DP  RH WIND       PRES   REMARKS
GRAND JUNCTION SUNNY     45  20  36 VRB3      30.34R
MONTROSE       SUNNY     37  19  48 SE8       30.39R
EAGLE          SUNNY     30  22  72 CALM      30.45R
RIFLE          SUNNY     34  25  69 E6        30.40R WCI  29
DELTA          NOT AVBL
NUCLA          FAIR      39  14  35 SE6       30.35R
$$

COZ017>023-064>068-251500-
...SOUTHWEST COLORADO...

CITY           SKY/WX    TMP DP  RH WIND       PRES   REMARKS
DURANGO        SUNNY     44  19  36 CALM      30.27R
CORTEZ         SUNNY     40  12  32 CALM      30.26R
PAGOSA SPRINGS FAIR      43   6  21 CALM      30.32R
TELLURIDE      SUNNY     34  13  42 SE5       30.36S WCI  30
WOLF CREEK PAS SUNNY     28 -11  17 N6        30.48R WCI  22
$$

COZ009-010-012-014-032>034-037-058>063-251500-
...CENTRAL COLORADO...

CITY           SKY/WX    TMP DP  RH WIND       PRES   REMARKS
ASPEN          SUNNY     32  14  47 CALM      30.38S
BUENA VISTA    FAIR      28  24  84 SE5       30.40R WCI  23
COPPER MTN     NOT AVBL
BERTHOUD PASS  FAIR      14   3  62 NW8       30.41S WCI   3
COTTONWOOD PAS SUNNY     32  23  69 CALM      30.39R
GUNNISON       SUNNY     25  17  72 CALM      30.42R
KREMMLING      SUNNY     32  27  80 CALM      30.45S
LEADVILLE      MOSUNNY   21  16  81 CALM      30.40R
MONARCH PASS   SUNNY     25  -8  24 W9        30.53R WCI  15
SALIDA         FAIR      32  28  85 CALM      30.47R
SUNLIGHT       SUNNY     25   9  50 CALM      30.46R
WILKERSON PASS SUNNY     27  12  54 N9        30.42R WCI  17
$$

COZ069>075-251500-
...SAN LUIS VALLEY/SANGRE DE CRISTO MOUNTAINS...

CITY           SKY/WX    TMP DP  RH WIND       PRES   REMARKS
ALAMOSA        SUNNY     32  23  69 SW3       30.36R
DEL NORTE      FAIR      36  15  42 W7        30.36S
LA VETA PASS   SUNNY     27  19  74 SW13      30.47S WCI  16
SAGUACHE       NOT AVBL
$$

COZ035-036-038>040-251500-
...NORTHERN COLORADO FRONT RANGE...

CITY           SKY/WX    TMP DP  RH WIND       PRES   REMARKS
DENVER INTL AP MOSUNNY   37  28  70 S7        30.35R
DMNS CITY PARK NOT AVBL
AURORA         MOSUNNY   35  32  88 S6        30.35F WCI  30
FRONT RANGE AP MOSUNNY   37  30  75 SE6       30.36S
ERIE MUNI ARPT FAIR      35  31  88 CALM      30.41S
BOULDER MUN AP FAIR      36  30  80 CALM      30.35R
CENTENNIAL     SUNNY     34  31  88 S6        30.34F WCI  29
BROOMFIELD     MOSUNNY   36  30  80 S3        30.35R
LOVELAND       SUNNY     34  32  92 CALM      30.36S FOG
LONGMONT       FAIR      37  31  79 CALM      30.37F
$$

COZ041-046-047-076>085-087-088-251500-
...PIKES PEAK/PALMER DIVIDE AND SOUTHERN FOOTHILLS...

CITY           SKY/WX    TMP DP  RH WIND       PRES   REMARKS
COLO. SPRINGS  MOSUNNY   32  28  85 NE5       30.36S WCI  27
A. F. ACADEMY  SUNNY     28  26  93 N6        30.35F WCI  21
SCHRIEVER AFB  NOT AVBL
CHEYENNE MTN   NOT AVBL
ELLICOTT         N/A    N/A N/A N/A N5        30.35F
FALCON         FAIR      31  25  78 CALM      30.36S
FORT CARSON    SUNNY     35  30  84 N3        30.35S
LIMON          SUNNY     33  29  85 W8        30.35F WCI  26
MONUMENT HILL  SUNNY     25  23  93 SW6       30.36S WCI  18
CANON CITY     FAIR      36  32  87 SE5       30.36F
WALSENBURG     FAIR      27  25  93 CALM      30.37S
TRINIDAD       SUNNY     34  31  88 CALM      30.38S
$$

COZ042>045-048>051-090-091-251500-
...NORTHEAST COLORADO...

CITY           SKY/WX    TMP DP  RH WIND       PRES   REMARKS
GREELEY ARPT   SUNNY     35  27  72 CALM      30.37S
AKRON          SUNNY     37  31  78 NW6       30.35S
BURLINGTON     SUNNY     36  29  75 NW12      30.35S
WRAY           FAIR      39  32  75 NW8       30.36F
YUMA           NOT AVBL
STERLING       NOT AVBL
HOLYOKE        FAIR      41  32  70 NW8       30.35F
FORT MORGAN    FAIR      35  29  81 SW3       30.37S
$$

COZ086-089-092>099-251500-
...SOUTHEAST COLORADO...

CITY           SKY/WX    TMP DP  RH WIND       PRES   REMARKS
PUEBLO         SUNNY     39  36  89 W3        30.38R
LA JUNTA       SUNNY     40  35  83 W8        30.38S
LAMAR          SUNNY     39  33  79 NW6       30.37S
SPRINGFIELD      N/A     38  33  82 N17       30.35R
$$





USA.gov is the U.S. government's official web portal to all federal, state and local government web resources and services.